TimeCST,TemperatureF,Dew PointF,Humidity,Sea Level PressureIn,VisibilityMPH,Wind Direction,Wind SpeedMPH,Gust SpeedMPH,PrecipitationIn,Events,Conditions,WindDirDegrees,DateUTC
12:13 AM,-2.2,-11.2,66,30.55,10.0,NW,17.3,-,N/A,,Clear,320,2012-02-11 06:13:00
12:33 AM,-2.2,-11.2,66,30.56,10.0,NW,19.6,-,N/A,,Clear,320,2012-02-11 06:33:00
12:52 AM,-2.2,-11.2,66,30.56,10.0,NW,18.4,-,N/A,,Clear,320,2012-02-11 06:52:00
1:13 AM,-2.2,-11.2,66,30.56,10.0,NW,17.3,23.0,N/A,,Clear,320,2012-02-11 07:13:00
1:32 AM,-4.0,-11.2,71,30.57,10.0,NW,16.1,24.2,N/A,,Clear,320,2012-02-11 07:32:00
1:52 AM,-4.0,-11.2,71,30.57,10.0,NW,16.1,21.9,N/A,,Clear,320,2012-02-11 07:52:00
2:13 AM,-4.0,-11.2,71,30.57,10.0,NW,16.1,-,N/A,,Clear,320,2012-02-11 08:13:00
2:32 AM,-4.0,-11.2,71,30.57,10.0,NW,15.0,-,N/A,,Clear,320,2012-02-11 08:32:00
2:52 AM,-4.0,-11.2,71,30.57,10.0,NW,13.8,-,N/A,,Clear,320,2012-02-11 08:52:00
3:13 AM,-4.0,-11.2,71,30.57,10.0,NW,13.8,-,N/A,,Clear,320,2012-02-11 09:13:00
3:32 AM,-4.0,-11.2,71,30.57,10.0,NW,13.8,-,N/A,,Clear,320,2012-02-11 09:32:00
3:52 AM,-4.0,-11.2,71,30.57,10.0,NW,15.0,20.7,N/A,,Clear,320,2012-02-11 09:52:00
4:13 AM,-4.0,-11.2,71,30.57,10.0,NW,16.1,-,N/A,,Clear,320,2012-02-11 10:13:00
4:32 AM,-4.0,-11.2,71,30.58,10.0,NW,13.8,-,N/A,,Clear,310,2012-02-11 10:32:00
4:52 AM,-4.0,-11.2,71,30.59,10.0,WNW,12.7,-,N/A,,Clear,300,2012-02-11 10:52:00
5:13 AM,-4.0,-11.2,71,30.59,10.0,WNW,11.5,-,N/A,,Clear,300,2012-02-11 11:13:00
5:32 AM,-4.0,-11.2,71,30.59,10.0,NW,11.5,-,N/A,,Clear,310,2012-02-11 11:32:00
5:52 AM,-4.0,-11.2,71,30.60,10.0,WNW,11.5,-,N/A,,Clear,300,2012-02-11 11:52:00
6:13 AM,-4.0,-11.2,71,30.60,10.0,WNW,11.5,-,N/A,,Clear,300,2012-02-11 12:13:00
6:32 AM,-4.0,-11.2,71,30.60,10.0,WNW,11.5,-,N/A,,Clear,290,2012-02-11 12:32:00
6:53 AM,-4.0,-11.2,71,30.61,10.0,WNW,12.7,-,N/A,,Clear,290,2012-02-11 12:53:00
7:12 AM,-4.0,-11.2,71,30.61,10.0,WNW,10.4,-,N/A,,Clear,290,2012-02-11 13:12:00
7:33 AM,-4.0,-9.4,78,30.62,10.0,WNW,12.7,-,N/A,,Clear,290,2012-02-11 13:33:00
7:52 AM,-2.2,-9.4,71,30.62,10.0,WNW,11.5,-,N/A,,Clear,300,2012-02-11 13:52:00
8:12 AM,-2.2,-9.4,71,30.62,10.0,WNW,10.4,-,N/A,,Clear,300,2012-02-11 14:12:00
8:33 AM,-0.4,-9.4,66,30.62,10.0,WNW,13.8,-,N/A,,Clear,300,2012-02-11 14:33:00
8:52 AM,1.4,-9.4,61,30.62,10.0,WNW,13.8,19.6,N/A,,Clear,300,2012-02-11 14:52:00
9:12 AM,3.2,-9.4,56,30.62,10.0,WNW,17.3,-,N/A,,Clear,300,2012-02-11 15:12:00
9:33 AM,5.0,-9.4,52,30.61,10.0,WNW,15.0,24.2,N/A,,Clear,300,2012-02-11 15:33:00
9:52 AM,6.8,-9.4,48,30.61,10.0,NW,19.6,23.0,N/A,,Clear,310,2012-02-11 15:52:00
10:12 AM,8.6,-11.2,40,30.62,10.0,WNW,16.1,-,N/A,,Clear,300,2012-02-11 16:12:00
10:33 AM,8.6,-11.2,40,30.62,10.0,Calm,Calm,-,N/A,,Clear,310,2012-02-11 16:33:00
10:52 AM,8.6,-13.0,37,30.62,10.0,NW,20.7,24.2,N/A,,Clear,320,2012-02-11 16:52:00
11:12 AM,10.4,-11.2,37,30.62,10.0,NW,18.4,23.0,N/A,,Clear,310,2012-02-11 17:12:00
11:33 AM,10.4,-9.4,41,30.63,10.0,NW,15.0,20.7,N/A,,Clear,310,2012-02-11 17:33:00
11:51 AM,12.2,-9.4,38,30.63,10.0,WNW,16.1,25.3,N/A,,Clear,300,2012-02-11 17:51:00
12:12 PM,12.2,-9.4,38,30.61,10.0,WNW,17.3,-,N/A,,Clear,290,2012-02-11 18:12:00
12:33 PM,14.0,-9.4,35,30.59,10.0,West,19.6,24.2,N/A,,Clear,280,2012-02-11 18:33:00
12:52 PM,15.8,-9.4,32,30.58,10.0,WNW,20.7,28.8,N/A,,Clear,300,2012-02-11 18:52:00
1:12 PM,15.8,-9.4,32,30.57,10.0,WNW,18.4,26.5,N/A,,Clear,300,2012-02-11 19:12:00
1:32 PM,17.6,-9.4,30,30.56,10.0,WNW,17.3,24.2,N/A,,Clear,300,2012-02-11 19:32:00
1:52 PM,17.6,-9.4,30,30.55,10.0,WNW,18.4,25.3,N/A,,Clear,300,2012-02-11 19:52:00
2:12 PM,19.4,-7.6,30,30.54,10.0,WNW,16.1,23.0,N/A,,Clear,300,2012-02-11 20:12:00
2:32 PM,19.4,-9.4,28,30.54,10.0,WNW,18.4,25.3,N/A,,Clear,290,2012-02-11 20:32:00
2:52 PM,21.2,-9.4,26,30.54,10.0,WNW,19.6,24.2,N/A,,Clear,290,2012-02-11 20:52:00
3:13 PM,21.2,-9.4,26,30.54,10.0,WNW,16.1,21.9,N/A,,Clear,300,2012-02-11 21:13:00
3:32 PM,21.2,-9.4,26,30.54,10.0,WNW,17.3,-,N/A,,Clear,290,2012-02-11 21:32:00
3:52 PM,21.2,-9.4,26,30.54,10.0,WNW,19.6,24.2,N/A,,Clear,300,2012-02-11 21:52:00
4:12 PM,21.2,-9.4,26,30.53,10.0,West,19.6,23.0,N/A,,Clear,280,2012-02-11 22:12:00
4:33 PM,21.2,-9.4,26,30.53,10.0,West,17.3,21.9,N/A,,Clear,280,2012-02-11 22:33:00
4:52 PM,21.2,-9.4,26,30.53,10.0,West,19.6,23.0,N/A,,Clear,280,2012-02-11 22:52:00
5:13 PM,19.4,-9.4,28,30.53,10.0,West,17.3,-,N/A,,Clear,280,2012-02-11 23:13:00
5:33 PM,17.6,-9.4,30,30.53,10.0,West,17.3,-,N/A,,Clear,280,2012-02-11 23:33:00
5:52 PM,17.6,-9.4,30,30.53,10.0,West,13.8,-,N/A,,Clear,280,2012-02-11 23:52:00
6:13 PM,15.8,-9.4,32,30.52,10.0,WNW,11.5,-,N/A,,Clear,290,2012-02-12 00:13:00
6:32 PM,12.2,-7.6,41,30.53,10.0,WNW,10.4,-,N/A,,Clear,290,2012-02-12 00:32:00
6:52 PM,12.2,-7.6,41,30.53,10.0,West,9.2,-,N/A,,Clear,270,2012-02-12 00:52:00
7:13 PM,10.4,-7.6,44,30.53,10.0,West,8.1,-,N/A,,Clear,270,2012-02-12 01:13:00
7:32 PM,10.4,-5.8,48,30.52,10.0,West,9.2,-,N/A,,Clear,280,2012-02-12 01:32:00
7:44 PM,8.6,-5.8,52,30.52,10.0,West,9.2,-,N/A,,Clear,280,2012-02-12 01:44:00
8:13 PM,8.6,-5.8,52,30.51,10.0,West,10.4,-,N/A,,Clear,270,2012-02-12 02:13:00
8:32 PM,8.6,-5.8,52,30.52,10.0,West,8.1,-,N/A,,Clear,280,2012-02-12 02:32:00
8:51 PM,6.8,-5.8,56,30.52,10.0,West,6.9,-,N/A,,Clear,280,2012-02-12 02:51:00
9:13 PM,6.8,-5.8,56,30.52,10.0,West,5.8,-,N/A,,Clear,270,2012-02-12 03:13:00
9:32 PM,5.0,-5.8,61,30.52,10.0,West,6.9,-,N/A,,Clear,270,2012-02-12 03:32:00
9:53 PM,6.8,-5.8,56,30.52,10.0,West,6.9,-,N/A,,Clear,270,2012-02-12 03:53:00
10:12 PM,3.2,-5.8,66,30.51,10.0,West,6.9,-,N/A,,Clear,280,2012-02-12 04:12:00
10:32 PM,3.2,-5.8,66,30.51,10.0,Calm,Calm,-,N/A,,Clear,0,2012-02-12 04:32:00
10:50 PM,3.2,-5.8,66,30.50,10.0,West,4.6,-,N/A,,Clear,280,2012-02-12 04:50:00
11:12 PM,3.2,-5.8,66,30.49,10.0,West,6.9,-,N/A,,Clear,270,2012-02-12 05:12:00
11:23 PM,3.2,-5.8,66,30.49,10.0,West,9.2,-,N/A,,Clear,280,2012-02-12 05:23:00
11:53 PM,1.4,-5.8,72,30.49,10.0,WSW,3.5,-,N/A,,Clear,250,2012-02-12 05:53:00